Highspire, PA

11:09 AM EST on February 09, 2016 (GMT -0500)
Harrisburg International

Weather History for KMDT - November, 2013

Change the Weather History Date:

Tuesday, November 19, 2013

  Actual Average Record
Temperature  
Mean Temperature 40 °F 43 °F  
Max Temperature 47 °F 52 °F 72 °F (1928)
Min Temperature 33 °F 34 °F 18 °F (1924)
Degree Days  
Heating Degree Days 25 22  
Month to date heating degree days 362 357  
Since 1 July heating degree days 708 769  
Cooling Degree Days 0 0  
Month to date cooling degree days 0 0  
Year to date cooling degree days 1105 1002  
Moisture  
Dew Point 22 °F    
Average Humidity 45    
Maximum Humidity 52    
Minimum Humidity 37    
Precipitation  
Precipitation 0.00 in 0.11 in 1.55 in (1932)
Month to date precipitation 0.85 1.94  
Year to date precipitation 37.32 36.22  
Snow  
Snow 0.00 in 0.00 in 4.60 in (1955)
Month to date snowfall T 0.1  
Since 1 July snowfall T 0.1  
Since 1 September snowfall T 0.1  
Snow Depth 0.00 in    
Sea Level Pressure  
Sea Level Pressure 30.18 in    
Wind  
Wind Speed 12 mph (NW)    
Max Wind Speed 24 mph    
Max Gust Speed 33 mph    
Visibility 10 miles    
Events      
T = Trace of Precipitation, MM = Missing Value Source: NWS Daily Summary

Daily Weather History Graph

Daily Weather History Graph

Search for Another Location

Airport or City:

Trip Planner

Search our weather history database for the weather conditions in past years. The results will help you decide how hot, cold, wet, or windy it might be!

Date:

Astronomy

Nov. 19, 2013 Rise Set
Actual Time 6:57 AM EST 4:47 PM EST
Civil Twilight 6:28 AM EST 5:16 PM EST
Nautical Twilight 5:54 AM EST 5:49 PM EST
Astronomical Twilight 5:22 AM EST 6:21 PM EST
Moon 6:36 PM EST (11/19) 8:35 AM EST (11/19)
Length of Visible Light 10h 48m
Length of Day
9h 49m
Waning Gibbous, 96% of the Moon is Illuminated
Nov 19
Waning Gibbous
Nov 25
Last Quarter
Dec 2
New
Dec 9
First Quarter
Dec 17
Full

Hourly Weather History & Observations

Time (EST) Temp. Windchill Dew Point Humidity Pressure Visibility Wind Dir Wind Speed Gust Speed Precip Events Conditions
12:56 AM 46.0 °F 39.9 °F 25.0 °F 44% 29.94 in 10.0 mi WNW 13.8 mph 20.7 mph N/A   Overcast
1:56 AM 45.0 °F 37.4 °F 26.1 °F 48% 29.96 in 10.0 mi NNW 18.4 mph - N/A   Overcast
2:56 AM 44.1 °F 36.5 °F 26.1 °F 49% 29.98 in 10.0 mi NNW 17.3 mph - N/A   Overcast
3:56 AM 42.1 °F 32.8 °F 23.0 °F 47% 30.00 in 10.0 mi NNW 21.9 mph 28.8 mph N/A   Mostly Cloudy
4:56 AM 41.0 °F 34.7 °F 21.9 °F 47% 30.04 in 10.0 mi NNW 10.4 mph 19.6 mph N/A   Mostly Cloudy
5:56 AM 41.0 °F 31.9 °F 21.9 °F 47% 30.06 in 10.0 mi NW 19.6 mph 26.5 mph N/A   Overcast
6:56 AM 41.0 °F 32.5 °F 21.9 °F 47% 30.09 in 10.0 mi NW 17.3 mph 24.2 mph N/A   Overcast
7:56 AM 41.0 °F 33.5 °F 24.1 °F 51% 30.11 in 10.0 mi NW 13.8 mph - N/A   Mostly Cloudy
8:56 AM 42.1 °F 35.7 °F 24.1 °F 49% 30.14 in 10.0 mi NW 11.5 mph - N/A   Mostly Cloudy
9:56 AM 42.1 °F 34.9 °F 23.0 °F 47% 30.16 in 10.0 mi NW 13.8 mph 20.7 mph N/A   Mostly Cloudy
10:56 AM 44.1 °F 37.4 °F 24.1 °F 45% 30.18 in 10.0 mi WNW 13.8 mph 20.7 mph N/A   Mostly Cloudy
11:56 AM 45.0 °F 38.9 °F 26.1 °F 48% 30.18 in 10.0 mi WNW 12.7 mph - N/A   Mostly Cloudy
12:56 PM 46.0 °F 39.9 °F 24.1 °F 42% 30.19 in 10.0 mi NW 13.8 mph - N/A   Mostly Cloudy
1:56 PM 46.0 °F 39.6 °F 23.0 °F 40% 30.19 in 10.0 mi NW 15.0 mph 23.0 mph N/A   Scattered Clouds
2:56 PM 46.0 °F 39.3 °F 21.9 °F 39% 30.19 in 10.0 mi NNW 16.1 mph 23.0 mph N/A   Partly Cloudy
3:56 PM 45.0 °F 39.3 °F 21.9 °F 40% 30.21 in 10.0 mi NNW 11.5 mph 19.6 mph N/A   Partly Cloudy
4:56 PM 43.0 °F 37.2 °F 21.0 °F 42% 30.25 in 10.0 mi NNW 10.4 mph - N/A   Partly Cloudy
5:56 PM 41.0 °F 35.8 °F 21.0 °F 45% 30.27 in 10.0 mi NNW 8.1 mph - N/A   Partly Cloudy
6:56 PM 39.0 °F 33.4 °F 19.9 °F 46% 30.29 in 10.0 mi North 8.1 mph - N/A   Partly Cloudy
7:56 PM 37.9 °F 32.7 °F 19.9 °F 48% 30.32 in 10.0 mi NNW 6.9 mph - N/A   Scattered Clouds
8:56 PM 37.0 °F 34.5 °F 19.0 °F 48% 30.35 in 10.0 mi NNW 3.5 mph - N/A   Scattered Clouds
9:56 PM 36.0 °F 30.3 °F 19.0 °F 50% 30.37 in 10.0 mi NNW 6.9 mph - N/A   Mostly Cloudy
10:56 PM 35.1 °F 29.3 °F 19.0 °F 52% 30.39 in 10.0 mi NNW 6.9 mph - N/A   Mostly Cloudy
11:56 PM 33.1 °F 26.9 °F 19.0 °F 56% 30.39 in 10.0 mi NNW 6.9 mph - N/A   Scattered Clouds